Location: Kitt Peak
(31.9633°N, 111.6000°W)
Time: 23:17:03
(UTC-07:00)

Amateur Radio Satellites - All Passes

Search period start: 24 October 2014 22:47
Search period end: 25 October 2014 22:47
Location: Kitt Peak, 31.9633°N, 111.6000°W

Satellite Date Start Highest point End Downlink Frequencies (MHz)
Time Altitude Azimuth
RS-15 24 Oct 22:54:52 23:05:24 50° 305° (NW) 23:15:54 29.354 - 29.394 USB, Beacon 29.352 USB
SO-50 24 Oct 22:59:50 23:03:39 23° 250° (WSW) 23:07:28 436.795 FM
KITSAT 1 24 Oct 23:19:48 23:25:05 19° 257° (WSW) 23:30:23 435.175 FM
MaSat-1 24 Oct 23:22:07 23:26:21 62° 293° (WNW) 23:30:14 437.345 MHz
UOSAT-12 25 Oct 00:22:42 00:26:57 35° 248° (WSW) 00:31:07 437.025 FM, 437.400 FM
Oscar 16 25 Oct 00:47:05 00:49:40 14° 93° (E) 00:52:14 437.025 USB, Beacon 2401.1428
JAS-1B 25 Oct 00:49:05 00:54:12 20° 97° (E) 00:59:51 435.800 - 435.900 CW/SSB
RS-15 25 Oct 01:16:59 01:21:20 13° 333° (NNW) 01:25:42 29.354 - 29.394 USB, Beacon 29.352 USB
Oscar 19 25 Oct 01:38:27 01:43:25 50° 100° (E) 01:48:22 437.125 CW, 437.150 USB
AO-27 25 Oct 01:57:04 02:01:35 29° 97° (E) 02:06:04 436.795 MHz FM
AO-Echo 25 Oct 02:17:31 02:22:50 67° 101° (ESE) 02:28:04 ?
Sapphire 25 Oct 02:21:17 02:25:26 23° 106° (ESE) 02:29:35 437.095 MHz 1200 baud AX-25 AFSK
Oscar 16 25 Oct 02:24:17 02:29:14 52° 286° (WNW) 02:34:10 437.025 USB, Beacon 2401.1428
JAS-1B 25 Oct 02:37:57 02:44:48 64° 286° (WNW) 02:53:00 435.800 - 435.900 CW/SSB
PCSat 25 Oct 02:42:45 02:47:46 41° 109° (ESE) 02:52:50 145.825 MHz
Uribyol 2 25 Oct 02:44:05 02:49:19 85° 284° (WNW) 02:54:29 436.500 FM
ITAMSAT 1 25 Oct 02:50:11 02:55:25 79° 284° (WNW) 03:00:36 435.822 SSB
Gurwin Techsat 1B 25 Oct 03:11:21 03:16:42 85° 103° (ESE) 03:22:00 435.225 FM
Oscar 19 25 Oct 03:19:23 03:22:17 15° 294° (WNW) 03:25:11 437.125 CW, 437.150 USB
TMSAT-1 25 Oct 03:22:26 03:27:46 80° 103° (ESE) 03:33:03 436.925 FM
AO-27 25 Oct 03:36:37 03:40:56 27° 291° (WNW) 03:45:13 436.795 MHz FM
AO-Echo 25 Oct 03:58:40 04:00:56 13° 295° (WNW) 04:03:13 ?
Uosat F 25 Oct 04:03:28 04:07:32 24° 97° (E) 04:11:34 435.120 FM
Sapphire 25 Oct 04:03:35 04:08:33 37° 300° (WNW) 04:13:34 437.095 MHz 1200 baud AX-25 AFSK
AO-7 25 Oct 04:16:37 04:24:39 50° 102° (ESE) 04:32:39 29.400 - 29.500 MHz
PCSat 25 Oct 04:27:09 04:31:18 22° 305° (NW) 04:35:29 145.825 MHz
OPAL 25 Oct 04:45:44 04:50:52 73° 73° (ENE) 04:55:59 ?
Hamsat 25 Oct 05:04:39 05:05:46 11° 93° (E) 05:06:54 145.90 MHz
TMSAT-1 25 Oct 05:06:17 05:06:56 10° 297° (WNW) 05:07:34 436.925 FM
Uosat F 25 Oct 05:41:53 05:46:14 30° 290° (WNW) 05:50:34 435.120 FM
JAS-2 25 Oct 05:44:37 05:52:28 69° 101° (ESE) 06:00:06 435.800 - 435.900 CW/SSB, 435.910 FM
Saudisat 1A 25 Oct 05:47:55 05:50:26 15° 109° (ESE) 05:52:57 436.775 MHz
RS-15 25 Oct 05:49:47 05:59:25 32° 47° (NE) 06:09:18 29.354 - 29.394 USB, Beacon 29.352 USB
AO-7 25 Oct 06:10:02 06:17:01 31° 297° (WNW) 06:24:01 29.400 - 29.500 MHz
PANSAT 25 Oct 06:17:24 06:20:35 25° 163° (SSE) 06:23:47 not established
STRAND 1 25 Oct 06:30:49 06:35:55 79° 76° (ENE) 06:41:04 ?
Hamsat 25 Oct 06:37:52 06:41:52 44° 285° (WNW) 06:45:53 145.90 MHz
Saudisat 1A 25 Oct 07:25:31 07:29:37 39° 302° (WNW) 07:33:46 436.775 MHz
JAS-2 25 Oct 07:31:04 07:36:41 22° 296° (WNW) 07:42:18 435.800 - 435.900 CW/SSB, 435.910 FM
SO-67 25 Oct 07:34:04 07:37:31 74° 282° (WNW) 07:40:56 435.3500 MHz FM
PANSAT 25 Oct 07:56:44 08:00:25 47° 175° (S) 08:04:07 not established
RS-15 25 Oct 08:01:23 08:12:33 70° 247° (WSW) 08:24:14 29.354 - 29.394 USB, Beacon 29.352 USB
HO-68 25 Oct 08:22:41 08:28:20 25° 96° (E) 08:33:56 435.675 MHz FM
Oscar 10/S400 25 Oct 09:00:42 00:11:45 43° 229° (SW) 09:58:39 145.825 - 145.975 CW/USB, Beacon 145.810 USB
MaSat-1 25 Oct 09:13:01 09:15:29 70° 67° (ENE) 09:17:49 437.345 MHz
PANSAT 25 Oct 09:36:43 09:40:22 43° 188° (S) 09:44:00 not established
ZACube-1 25 Oct 09:46:35 09:49:09 16° 94° (E) 09:51:41 437.345 MHz
UKube-1 25 Oct 09:49:22 09:53:38 51° 101° (E) 09:57:51 145.840 MHz, 145.915 MHz
KITSAT 1 25 Oct 09:54:19 09:58:21 15° 101° (E) 10:02:23 435.175 FM
HO-68 25 Oct 10:09:18 10:16:12 51° 290° (WNW) 10:23:04 435.675 MHz FM
RS-15 25 Oct 10:21:15 10:23:02 10° 262° (W) 10:24:51 29.354 - 29.394 USB, Beacon 29.352 USB
FUNcube-1 25 Oct 10:29:51 10:34:00 56° 100° (E) 10:38:04 145.950 - 145.970 MHz USB
Oscar 11 25 Oct 10:30:28 10:34:37 50° 285° (WNW) 10:38:47 145.825 FM, Beacon 2401.500 USB
ISS 25 Oct 10:51:39 10:54:27 26° 129° (SE) 10:57:16 145.800 FM
PANSAT 25 Oct 11:17:17 11:20:09 20° 200° (SSW) 11:23:01 not established
ZACube-1 25 Oct 11:21:53 11:25:35 30° 288° (WNW) 11:29:13 437.345 MHz
UKube-1 25 Oct 11:28:02 11:29:18 11° 294° (WNW) 11:30:34 145.840 MHz, 145.915 MHz
SO-50 25 Oct 11:29:28 11:33:20 30° 111° (ESE) 11:37:18 436.795 FM
PCSat 25 Oct 11:37:16 11:39:49 13° 51° (NE) 11:42:23 145.825 MHz
KITSAT 1 25 Oct 11:44:37 11:52:42 86° 296° (WNW) 12:00:49 435.175 FM
Oscar 16 25 Oct 12:00:04 12:02:29 14° 65° (ENE) 12:04:55 437.025 USB, Beacon 2401.1428
ISS 25 Oct 12:28:25 12:31:06 22° 323° (NW) 12:33:48 145.800 FM
UOSAT-12 25 Oct 12:50:23 12:53:25 18° 109° (ESE) 12:56:30 437.025 FM, 437.400 FM
Oscar 19 25 Oct 12:50:33 12:55:25 44° 73° (ENE) 13:00:18 437.125 CW, 437.150 USB
Sapphire 25 Oct 12:55:55 13:01:18 62° 63° (ENE) 13:06:39 437.095 MHz 1200 baud AX-25 AFSK
SO-50 25 Oct 13:10:20 13:13:52 22° 307° (NW) 13:17:28 436.795 FM
AO-27 25 Oct 13:10:41 13:15:02 28° 69° (ENE) 13:19:25 436.795 MHz FM
PCSat 25 Oct 13:18:22 13:23:47 75° 247° (WSW) 13:29:10 145.825 MHz
JAS-1B 25 Oct 13:19:31 13:25:39 72° 75° (ENE) 13:31:19 435.800 - 435.900 CW/SSB
AO-Echo 25 Oct 13:25:44 13:30:23 49° 73° (ENE) 13:35:12 ?
Oscar 16 25 Oct 13:36:12 13:41:17 59° 259° (W) 13:46:22 437.025 USB, Beacon 2401.1428
KITSAT 1 25 Oct 13:44:11 13:49:12 17° 315° (NW) 13:54:15 435.175 FM
Uribyol 2 25 Oct 13:56:57 14:02:10 88° 76° (ENE) 14:07:25 436.500 FM
ITAMSAT 1 25 Oct 14:03:11 14:08:24 86° 257° (WSW) 14:13:39 435.822 SSB
Gurwin Techsat 1B 25 Oct 14:27:30 14:32:48 83° 76° (ENE) 14:38:08 435.225 FM
UOSAT-12 25 Oct 14:28:55 14:33:13 38° 303° (WNW) 14:37:36 437.025 FM, 437.400 FM
Oscar 19 25 Oct 14:31:41 14:34:54 17° 266° (W) 14:38:07 437.125 CW, 437.150 USB
TMSAT-1 25 Oct 14:38:14 14:43:31 76° 76° (ENE) 14:48:49 436.925 FM
Sapphire 25 Oct 14:41:39 14:44:07 13° 257° (WSW) 14:46:34 437.095 MHz 1200 baud AX-25 AFSK
AO-27 25 Oct 14:50:00 14:54:24 28° 263° (W) 14:58:51 436.795 MHz FM
AO-Echo 25 Oct 15:07:00 15:09:24 14° 268° (W) 15:11:51 ?
AO-7 25 Oct 15:10:22 15:18:03 45° 66° (ENE) 15:25:45 29.400 - 29.500 MHz
Uosat F 25 Oct 15:12:31 15:16:12 21° 68° (ENE) 15:19:52 435.120 FM
JAS-2 25 Oct 15:54:28 15:57:50 16° 61° (ENE) 16:01:24 435.800 - 435.900 CW/SSB, 435.910 FM
Saudisat 1A 25 Oct 15:56:32 16:00:41 38° 58° (ENE) 16:04:47 436.775 MHz
Uosat F 25 Oct 16:50:07 16:54:41 35° 261° (W) 16:59:17 435.120 FM
OPAL 25 Oct 17:01:09 17:05:23 28° 99° (E) 17:09:36 ?
AO-7 25 Oct 17:03:33 17:10:49 34° 261° (W) 17:18:08 29.400 - 29.500 MHz
Hamsat 25 Oct 17:25:54 17:30:05 67° 77° (ENE) 17:34:15 145.90 MHz
JAS-2 25 Oct 17:36:17 17:41:58 68° 259° (W) 17:48:29 435.800 - 435.900 CW/SSB, 435.910 FM
Saudisat 1A 25 Oct 17:37:13 17:39:53 16° 251° (WSW) 17:42:33 436.775 MHz
SO-67 25 Oct 18:03:07 18:05:11 15° 71° (ENE) 18:07:15 435.3500 MHz FM
OPAL 25 Oct 18:40:06 18:44:06 25° 293° (WNW) 18:48:06 ?
STRAND 1 25 Oct 18:46:39 18:51:29 40° 99° (E) 18:56:16 ?
HO-68 25 Oct 18:50:44 18:52:18 11° 57° (ENE) 18:53:53 435.675 MHz FM
ISS 25 Oct 19:00:11 19:03:20 38° 41° (NE) 19:06:28 145.800 FM
SO-67 25 Oct 19:35:21 19:37:57 20° 264° (W) 19:40:33 435.3500 MHz FM
KITSAT 1 25 Oct 19:44:34 19:50:26 21° 48° (NE) 19:56:15 435.175 FM
RS-15 25 Oct 20:08:59 20:17:46 28° 104° (ESE) 20:26:23 29.354 - 29.394 USB, Beacon 29.352 USB
STRAND 1 25 Oct 20:26:44 20:30:19 20° 293° (WNW) 20:33:54 ?
HO-68 25 Oct 20:31:40 20:38:47 75° 73° (ENE) 20:45:57 435.675 MHz FM
ISS 25 Oct 20:37:57 20:39:44 14° 234° (SW) 20:41:30 145.800 FM
UKube-1 25 Oct 20:40:35 20:44:05 24° 70° (ENE) 20:47:36 145.840 MHz, 145.915 MHz
Oscar 11 25 Oct 21:20:15 21:24:32 66° 76° (ENE) 21:28:50 145.825 FM, Beacon 2401.500 USB
FUNcube-1 25 Oct 21:21:28 21:25:18 27° 72° (ENE) 21:29:05 145.950 - 145.970 MHz USB
KITSAT 1 25 Oct 21:38:32 21:46:36 78° 246° (WSW) 21:54:39 435.175 FM
SO-50 25 Oct 21:45:07 21:50:01 88° 63° (ENE) 21:54:54 436.795 FM
ZACube-1 25 Oct 22:12:21 22:16:57 75° 258° (WSW) 22:21:30 437.345 MHz
UKube-1 25 Oct 22:16:45 22:20:09 22° 263° (W) 22:23:34 145.840 MHz, 145.915 MHz
RS-15 25 Oct 22:18:17 22:29:12 65° 301° (WNW) 22:40:03 29.354 - 29.394 USB, Beacon 29.352 USB
HO-68 25 Oct 22:23:02 22:26:59 15° 267° (W) 22:30:57 435.675 MHz FM
